This demonstration page uses our WeatherBlox Daily Observations layout. Learn more.

Left ArrowRight Arrow

39.01783, -85.05884

Hourly Observations for November 8, 2020

Temp ( °F °C ) Dew Point ( °F °C ) Humidity (%) Winds ( mph kmh ) Pressure ( in mb ) Visibility ( mi km ) Precip ( " mm )
12:52 am 00:52 Clear 55 12.8 43 6.1 64 64 Calm 30.23 1024 10 16.0934 0 0
1:52 am 01:52 Clear 57 13.9 43 6.1 60 60 SE 3 6 30.23 1024 10 16.0934 0 0
2:52 am 02:52 Clear 57 13.9 44 6.7 62 62 ESE 6 9 30.24 1024 10 16.0934 0 0
3:52 am 03:52 Clear 58 14.4 44 6.7 60 60 Calm 30.25 1024 10 16.0934 0 0
4:52 am 04:52 Clear 56 13.3 44 6.7 65 65 SE 5 7 30.25 1025 10 16.0934 0 0
5:52 am 05:52 Clear 56 13.3 44 6.7 65 65 E 3 6 30.26 1025 10 16.0934 0 0
6:52 am 06:52 Clear 54 12.2 44 6.7 69 69 ESE 3 6 30.28 1025 10 16.0934 0 0
7:52 am 07:52 Sunny 55 12.8 44 6.7 67 67 E 3 6 30.29 1026 10 16.0934 0 0
8:52 am 08:52 Sunny 61 16.1 46 7.8 58 58 ESE 5 7 30.31 1026 10 16.0934 0 0
9:52 am 09:52 Sunny 65 18.3 45 7.2 49 49 SE 9 15 30.32 1027 10 16.0934 0 0
10:52 am 10:52 Mostly Sunny 70 21.1 48 8.9 46 46 SE 6 9 30.32 1027 10 16.0934 0 0
11:52 am 11:52 Sunny 74 23.3 52 11.1 46 46 SSE 6 9 30.31 1026 10 16.0934 0 0
12:52 pm 12:52 Mostly Sunny 77 25 52 11.1 42 42 SSE 7 11 30.29 1026 10 16.0934 0 0
1:52 pm 13:52 Mostly Sunny 77 25 52 11.1 42 42 ESE 3 6 30.27 1025 10 16.0934 0 0
2:52 pm 14:52 Mostly Sunny 78 25.6 51 10.6 39 39 SE 6 9 30.25 1025 10 16.0934 0 0
3:52 pm 15:52 Mostly Sunny 78 25.6 52 11.1 40 40 SE 8 13 30.24 1024 10 16.0934 0 0
4:52 pm 16:52 Mostly Sunny 75 23.9 52 11.1 45 45 ESE 6 9 30.24 1024 10 16.0934 0 0
5:52 pm 17:52 Clear 72 22.2 51 10.6 48 48 ESE 6 9 30.24 1024 10 16.0934 0 0
6:52 pm 18:52 Clear 69 20.6 49 9.4 49 49 ESE 7 11 30.24 1024 10 16.0934 0 0
7:52 pm 19:52 Clear 65 18.3 49 9.4 56 56 ESE 7 11 30.24 1024 10 16.0934 0 0
8:52 pm 20:52 Clear 65 18.3 48 8.9 54 54 ESE 9 15 30.24 1024 10 16.0934 0 0
9:52 pm 21:52 Clear 63 17.2 48 8.9 58 58 SE 9 15 30.24 1024 10 16.0934 0 0
10:52 pm 22:52 Clear 62 16.7 47 8.3 58 58 ESE 6 9 30.24 1024 10 16.0934 0 0
11:52 pm 23:52 Clear 62 16.7 47 8.3 58 58 Calm 30.23 1024 10 16.0934 0 0

Powered by AerisWeather